| time (UTC) | temp F | wind direction | speed MPH | gust MPH | rain 1hr in | rain 24hr in | rain mn in | humidity % | barometer mb |
| 20260509024025 | 50 | 168 | 0.0 | 2.0 | 0.00 | 0.14 | 0.12 | 87 | 1013.4 |
| 20260509023025 | 50 | 164 | 0.0 | 1.0 | 0.00 | 0.14 | 0.12 | 87 | 1013.4 |
| 20260509022025 | 50 | 164 | 0.0 | 2.0 | 0.00 | 0.14 | 0.12 | 85 | 1013.1 |
| 20260509021025 | 50 | 160 | 0.0 | 0.0 | 0.00 | 0.14 | 0.12 | 85 | 1012.9 |
| 20260509020025 | 50 | 161 | 0.0 | 0.0 | 0.00 | 0.14 | 0.12 | 85 | 1012.8 |
| 20260509015025 | 50 | 160 | 0.0 | 0.0 | 0.00 | 0.14 | 0.12 | 84 | 1012.9 |
| 20260509014025 | 50 | 161 | 0.0 | 0.0 | 0.00 | 0.14 | 0.12 | 84 | 1012.9 |
| 20260509013025 | 50 | 161 | 1.0 | 2.0 | 0.00 | 0.14 | 0.12 | 85 | 1012.8 |
| 20260509012025 | 49 | 156 | 0.0 | 0.0 | 0.00 | 0.14 | 0.12 | 86 | 1012.7 |
| 20260509011025 | 49 | 272 | 0.0 | 0.0 | 0.00 | 0.14 | 0.12 | 88 | 1012.6 |
| 20260509010025 | 49 | 272 | 0.0 | 0.0 | 0.00 | 0.14 | 0.12 | 88 | 1012.6 |
| 20260509004025 | 50 | 273 | 0.0 | 0.0 | 0.00 | 0.14 | 0.12 | 89 | 1012.3 |
| 20260509003025 | 50 | 273 | 0.0 | 0.0 | 0.00 | 0.14 | 0.12 | 89 | 1012.3 |
| 20260509001026 | 50 | 272 | 0.0 | 0.0 | 0.00 | 0.14 | 0.12 | 89 | 1012.2 |
| 20260509000025 | 50 | 272 | 0.0 | 0.0 | 0.01 | 0.14 | 0.12 | 90 | 1012.1 |
| 20260508235025 | 50 | 273 | 0.0 | 0.0 | 0.01 | 0.14 | 0.12 | 90 | 1011.9 |
| 20260508234025 | 50 | 272 | 0.0 | 0.0 | 0.01 | 0.14 | 0.12 | 89 | 1011.7 |
| 20260508232025 | 51 | 272 | 0.0 | 1.0 | 0.03 | 0.14 | 0.12 | 87 | 1011.8 |
| 20260508225025 | 51 | 345 | 1.0 | 3.0 | 0.04 | 0.13 | 0.11 | 84 | 1011.8 |
| 20260508224025 | 51 | 312 | 2.0 | 7.0 | 0.04 | 0.13 | 0.11 | 83 | 1011.8 |
| 20260508223025 | 52 | 327 | 2.0 | 9.0 | 0.03 | 0.12 | 0.10 | 80 | 1011.9 |
| 20260508222024 | 54 | 349 | 1.0 | 3.0 | 0.02 | 0.11 | 0.09 | 79 | 1011.8 |
| 20260508221025 | 55 | 14 | 0.0 | 0.0 | 0.00 | 0.09 | 0.07 | 79 | 1011.7 |
| 20260508220024 | 55 | 14 | 0.0 | 1.0 | 0.00 | 0.09 | 0.07 | 76 | 1011.4 |
| 20260508215025 | 55 | 13 | 0.0 | 2.0 | 0.00 | 0.09 | 0.07 | 74 | 1011.3 |
| 20260508214025 | 54 | 127 | 0.0 | 0.0 | 0.00 | 0.09 | 0.07 | 77 | 1011.4 |
| 20260508213024 | 54 | 127 | 1.0 | 3.0 | 0.00 | 0.09 | 0.07 | 76 | 1011.4 |
| 20260508212025 | 55 | 164 | 1.0 | 2.0 | 0.00 | 0.09 | 0.07 | 74 | 1011.6 |
| 20260508211025 | 55 | 330 | 0.0 | 0.0 | 0.00 | 0.09 | 0.07 | 71 | 1011.6 |
| 20260508210025 | 55 | 271 | 0.0 | 0.0 | 0.00 | 0.09 | 0.07 | 74 | 1011.7 |
| 20260508205025 | 54 | 272 | 0.0 | 0.0 | 0.04 | 0.09 | 0.07 | 77 | 1011.7 |
| 20260508204025 | 55 | 272 | 0.0 | 1.0 | 0.04 | 0.09 | 0.07 | 77 | 1011.8 |
| 20260508203024 | 54 | 195 | 0.0 | 3.0 | 0.04 | 0.09 | 0.07 | 81 | 1011.9 |
| 20260508201025 | 54 | 229 | 0.0 | 3.0 | 0.04 | 0.09 | 0.07 | 81 | 1012.1 |
| 20260508200025 | 56 | 193 | 3.0 | 10.0 | 0.04 | 0.09 | 0.07 | 75 | 1012.3 |
| 20260508195025 | 58 | 222 | 1.0 | 7.0 | 0.00 | 0.05 | 0.03 | 59 | 1012.1 |
| 20260508194025 | 59 | 170 | 1.0 | 3.0 | 0.00 | 0.05 | 0.03 | 56 | 1011.9 |
| 20260508193025 | 60 | 321 | 1.0 | 7.0 | 0.00 | 0.05 | 0.03 | 55 | 1011.8 |
| 20260508192025 | 59 | 204 | 1.0 | 5.0 | 0.00 | 0.05 | 0.03 | 56 | 1012.0 |
| 20260508191025 | 58 | 340 | 2.0 | 8.0 | 0.00 | 0.05 | 0.03 | 54 | 1012.1 |
| 20260508190024 | 57 | 284 | 3.0 | 9.0 | 0.00 | 0.05 | 0.03 | 56 | 1012.3 |
| 20260508185025 | 57 | 296 | 3.0 | 7.0 | 0.00 | 0.05 | 0.03 | 59 | 1012.3 |
| 20260508184025 | 56 | 340 | 2.0 | 12.0 | 0.00 | 0.05 | 0.03 | 58 | 1012.5 |
| 20260508183025 | 57 | 201 | 1.0 | 7.0 | 0.00 | 0.05 | 0.03 | 59 | 1012.6 |
| 20260508182025 | 57 | 250 | 3.0 | 9.0 | 0.00 | 0.05 | 0.03 | 58 | 1012.6 |
| 20260508181025 | 57 | 318 | 2.0 | 6.0 | 0.00 | 0.05 | 0.03 | 60 | 1012.7 |
| 20260508180025 | 56 | 235 | 2.0 | 6.0 | 0.00 | 0.05 | 0.03 | 62 | 1012.7 |
| 20260508175024 | 55 | 25 | 1.0 | 8.0 | 0.00 | 0.05 | 0.03 | 65 | 1012.9 |
| 20260508173025 | 55 | 231 | 3.0 | 10.0 | 0.00 | 0.05 | 0.03 | 64 | 1013.2 |
| 20260508172025 | 55 | 264 | 2.0 | 13.0 | 0.00 | 0.05 | 0.03 | 60 | 1012.9 |
| 20260508171025 | 55 | 335 | 2.0 | 12.0 | 0.00 | 0.05 | 0.03 | 59 | 1012.8 |
| 20260508170025 | 55 | 310 | 3.0 | 7.0 | 0.00 | 0.05 | 0.03 | 59 | 1012.7 |
| 20260508165025 | 54 | 310 | 5.0 | 10.0 | 0.00 | 0.05 | 0.03 | 59 | 1012.7 |
| 20260508164025 | 54 | 303 | 3.0 | 8.0 | 0.00 | 0.05 | 0.03 | 62 | 1012.8 |
| 20260508163025 | 55 | 222 | 2.0 | 12.0 | 0.00 | 0.05 | 0.03 | 60 | 1013.1 |
| 20260508162025 | 55 | 283 | 5.0 | 12.0 | 0.00 | 0.05 | 0.03 | 58 | 1013.2 |
| 20260508161025 | 54 | 241 | 2.0 | 8.0 | 0.00 | 0.05 | 0.03 | 60 | 1013.2 |
| 20260508160025 | 55 | 303 | 4.0 | 8.0 | 0.00 | 0.05 | 0.03 | 58 | 1013.3 |
| 20260508155025 | 56 | 179 | 2.0 | 8.0 | 0.00 | 0.05 | 0.03 | 58 | 1013.3 |
| 20260508154025 | 56 | 159 | 2.0 | 6.0 | 0.00 | 0.05 | 0.03 | 61 | 1013.3 |
| 20260508153025 | 54 | 149 | 2.0 | 7.0 | 0.00 | 0.05 | 0.03 | 64 | 1013.2 |
| 20260508152025 | 54 | 208 | 2.0 | 8.0 | 0.00 | 0.05 | 0.03 | 63 | 1013.3 |
| 20260508151025 | 54 | 203 | 3.0 | 8.0 | 0.00 | 0.05 | 0.03 | 64 | 1013.4 |
| 20260508150025 | 53 | 163 | 1.0 | 5.0 | 0.00 | 0.05 | 0.03 | 72 | 1013.5 |
| 20260508144026 | 49 | 185 | 1.0 | 6.0 | 0.00 | 0.05 | 0.03 | 80 | 1013.7 |
| 20260508143025 | 48 | 310 | 2.0 | 6.0 | 0.00 | 0.05 | 0.03 | 82 | 1013.8 |
| 20260508142025 | 47 | 161 | 1.0 | 3.0 | 0.00 | 0.05 | 0.03 | 86 | 1013.8 |
| 20260508141025 | 46 | 206 | 1.0 | 3.0 | 0.00 | 0.05 | 0.03 | 89 | 1013.8 |
| 20260508135024 | 43 | 172 | 1.0 | 3.0 | 0.00 | 0.05 | 0.03 | 95 | 1013.6 |
| 20260508133024 | 42 | 182 | 0.0 | 0.0 | 0.00 | 0.05 | 0.03 | 95 | 1014.0 |
| 20260508131025 | 42 | 181 | 0.0 | 1.0 | 0.00 | 0.05 | 0.03 | 95 | 1014.2 |
| 20260508130025 | 41 | 177 | 0.0 | 1.0 | 0.00 | 0.05 | 0.03 | 95 | 1014.2 |
| 20260508124025 | 41 | 197 | 0.0 | 2.0 | 0.00 | 0.05 | 0.03 | 95 | 1014.1 |
| 20260508122025 | 41 | 196 | 0.0 | 0.0 | 0.00 | 0.05 | 0.03 | 96 | 1014.0 |
| 20260508121025 | 41 | 206 | 0.0 | 0.0 | 0.00 | 0.05 | 0.03 | 96 | 1014.0 |
| 20260508120025 | 41 | 231 | 0.0 | 2.0 | 0.01 | 0.05 | 0.03 | 96 | 1013.9 |
| 20260508115025 | 40 | 191 | 0.0 | 0.0 | 0.01 | 0.05 | 0.03 | 97 | 1013.7 |
| 20260508114024 | 40 | 262 | 0.0 | 0.0 | 0.01 | 0.05 | 0.03 | 96 | 1013.7 |
| 20260508112025 | 39 | 341 | 0.0 | 0.0 | 0.01 | 0.05 | 0.03 | 96 | 1013.6 |
| 20260508111025 | 38 | 359 | 0.0 | 0.0 | 0.01 | 0.05 | 0.03 | 96 | 1013.6 |
| 20260508110025 | 37 | 341 | 0.0 | 0.0 | 0.00 | 0.04 | 0.02 | 95 | 1013.7 |
| 20260508105025 | 37 | 341 | 0.0 | 0.0 | 0.00 | 0.04 | 0.02 | 95 | 1013.5 |
| 20260508104025 | 37 | 341 | 0.0 | 0.0 | 0.00 | 0.04 | 0.02 | 94 | 1013.4 |
| 20260508103024 | 38 | 341 | 0.0 | 0.0 | 0.00 | 0.04 | 0.02 | 94 | 1013.2 |
| 20260508102025 | 38 | 341 | 0.0 | 0.0 | 0.00 | 0.04 | 0.02 | 94 | 1013.1 |
| 20260508101025 | 38 | 341 | 0.0 | 0.0 | 0.00 | 0.04 | 0.02 | 95 | 1013.0 |
| 20260508100024 | 38 | 341 | 0.0 | 0.0 | 0.00 | 0.04 | 0.02 | 94 | 1013.0 |
| 20260508095025 | 38 | 341 | 0.0 | 0.0 | 0.00 | 0.04 | 0.02 | 95 | 1013.1 |
| 20260508094025 | 38 | 341 | 0.0 | 0.0 | 0.00 | 0.04 | 0.02 | 95 | 1013.1 |
| 20260508093025 | 38 | 359 | 0.0 | 0.0 | 0.00 | 0.04 | 0.02 | 94 | 1013.1 |
| 20260508092025 | 38 | 341 | 0.0 | 0.0 | 0.00 | 0.04 | 0.02 | 94 | 1013.2 |
| 20260508091025 | 39 | 341 | 0.0 | 0.0 | 0.00 | 0.04 | 0.02 | 94 | 1013.2 |
| 20260508090024 | 39 | 341 | 0.0 | 0.0 | 0.00 | 0.04 | 0.02 | 94 | 1013.2 |
| 20260508085025 | 39 | 341 | 0.0 | 0.0 | 0.00 | 0.04 | 0.02 | 94 | 1013.0 |
| 20260508084025 | 39 | 341 | 0.0 | 0.0 | 0.00 | 0.04 | 0.02 | 94 | 1013.0 |
| 20260508083025 | 39 | 341 | 0.0 | 0.0 | 0.00 | 0.04 | 0.02 | 94 | 1013.0 |
| 20260508082025 | 39 | 341 | 0.0 | 0.0 | 0.00 | 0.04 | 0.02 | 94 | 1012.9 |
| 20260508075025 | 39 | 341 | 0.0 | 0.0 | 0.00 | 0.04 | 0.02 | 93 | 1012.8 |
| 20260508074025 | 40 | 341 | 0.0 | 0.0 | 0.00 | 0.04 | 0.02 | 93 | 1012.9 |
| 20260508073024 | 40 | 341 | 0.0 | 0.0 | 0.00 | 0.04 | 0.02 | 93 | 1012.8 |
| 20260508072025 | 40 | 341 | 0.0 | 0.0 | 0.00 | 0.04 | 0.02 | 93 | 1012.8 |
| 20260508071025 | 40 | 341 | 0.0 | 0.0 | 0.00 | 0.04 | 0.02 | 93 | 1012.8 |
| 20260508065025 | 40 | 341 | 0.0 | 0.0 | 0.00 | 0.04 | 0.02 | 93 | 1012.8 |
| 20260508064025 | 41 | 341 | 0.0 | 0.0 | 0.00 | 0.04 | 0.02 | 92 | 1012.8 |
| 20260508063025 | 41 | 341 | 0.0 | 0.0 | 0.00 | 0.04 | 0.02 | 92 | 1012.9 |
| 20260508062025 | 41 | 341 | 0.0 | 0.0 | 0.00 | 0.04 | 0.02 | 92 | 1012.8 |
| 20260508061025 | 41 | 341 | 0.0 | 0.0 | 0.00 | 0.04 | 0.02 | 92 | 1012.8 |
| 20260508060025 | 41 | 341 | 0.0 | 0.0 | 0.00 | 0.04 | 0.02 | 92 | 1012.8 |
| 20260508054025 | 42 | 341 | 0.0 | 0.0 | 0.00 | 0.04 | 0.02 | 91 | 1012.8 |
| 20260508052025 | 42 | 341 | 0.0 | 0.0 | 0.02 | 0.04 | 0.02 | 90 | 1012.8 |
| 20260508051025 | 43 | 341 | 0.0 | 0.0 | 0.02 | 0.04 | 0.02 | 90 | 1012.8 |
| 20260508050025 | 43 | 341 | 0.0 | 0.0 | 0.02 | 0.04 | 0.02 | 89 | 1012.8 |
| 20260508045025 | 43 | 310 | 0.0 | 2.0 | 0.00 | 0.04 | 0.02 | 89 | 1012.7 |
| 20260508042025 | 44 | 12 | 5.0 | 12.0 | 0.00 | 0.02 | 0.00 | 85 | 1012.8 |
| 20260508041025 | 44 | 4 | 3.0 | 9.0 | 0.00 | 0.02 | 0.00 | 85 | 1012.5 |
| 20260508040025 | 45 | 8 | 7.0 | 13.0 | 0.00 | 0.02 | 0.00 | 85 | 1012.3 |
| 20260508035025 | 45 | 4 | 7.0 | 14.0 | 0.00 | 0.02 | 0.02 | 85 | 1011.9 |
| 20260508034025 | 45 | 343 | 2.0 | 3.0 | 0.02 | 0.02 | 0.02 | 87 | 1011.7 |
| 20260508033025 | 46 | 354 | 0.0 | 0.0 | 0.02 | 0.02 | 0.02 | 86 | 1011.2 |
| 20260508032025 | 46 | 354 | 1.0 | 2.0 | 0.02 | 0.02 | 0.02 | 83 | 1011.2 |
| 20260508031025 | 47 | 340 | 0.0 | 0.0 | 0.02 | 0.02 | 0.02 | 82 | 1010.7 |
| 20260508030025 | 48 | 340 | 0.0 | 3.0 | 0.02 | 0.02 | 0.02 | 79 | 1010.8 |
| 20260508025025 | 49 | 12 | 2.0 | 18.0 | 0.02 | 0.02 | 0.02 | 73 | 1010.9 |